Location: Recife
(8.0585°S, 34.8848°W)
Time: 01:32:00
(UTC-03:00)

Tiros 1 - Pass Details

Date: 17 April 2026
Orbit: 618 x 648 km, 48.4° (Epoch: 15 May)

Event Time Altitude Azimuth Distance (km) Brightness Sun altitude
Rises 18:22:25 0° 329° (NNW) 2,937 11.1 -17.0°
Reaches altitude 10° 18:24:46 10° 334° (NNW) 2,033 10.2 -17.5°
Maximum altitude 18:29:22 55° 51° (NE) 777 7.3 -18.7°
Enters shadow 18:30:41 40° 103° (ESE) 946 7.5 -19.0°
